Time,TemperatureF,DewpointF,PressureIn,WindDirection,WindDirectionDegrees,WindSpeedMPH,WindSpeedGustMPH,Humidity,HourlyPrecipIn,Conditions,Clouds,dailyrainin,SolarRadiationWatts/m^2,SoftwareType,DateUTC
2013-05-15 00:03:00,50.3,45.3,29.82,ESE,104,1.2,1.2,83,0.00,RA,,0.00,0.0,WeatherDisplay:10.37,2013-05-14 22:03:00,
2013-05-15 00:09:00,50.2,45.2,29.82,ESE,105,3.5,3.5,83,0.00,RA,,0.00,0.0,WeatherDisplay:10.37,2013-05-14 22:09:00,
2013-05-15 00:14:00,50.1,45.1,29.82,ESE,104,4.0,4.0,83,0.00,CLR,,0.00,0.0,WeatherDisplay:10.37,2013-05-14 22:14:00,
2013-05-15 00:19:00,50.1,45.1,29.82,ESE,109,4.0,4.0,83,0.00,CLR,,0.00,0.0,WeatherDisplay:10.37,2013-05-14 22:19:00,
2013-05-15 00:24:00,50.0,45.0,29.81,ESE,107,5.0,5.0,83,0.00,CLR,,0.00,0.0,WeatherDisplay:10.37,2013-05-14 22:24:00,
2013-05-15 00:29:00,50.0,45.0,29.81,ESE,123,4.0,4.0,83,0.00,CLR,,0.00,0.0,WeatherDisplay:10.37,2013-05-14 22:29:00,
2013-05-15 00:34:00,49.9,44.9,29.81,ESE,123,3.5,3.5,83,0.00,CLR,,0.00,0.0,WeatherDisplay:10.37,2013-05-14 22:34:00,
2013-05-15 00:39:00,49.8,44.8,29.81,ESE,107,5.0,5.0,83,0.00,CLR,,0.00,0.0,WeatherDisplay:10.37,2013-05-14 22:39:00,
2013-05-15 00:44:00,49.6,44.6,29.81,ESE,107,4.0,4.0,83,0.00,CLR,,0.00,0.0,WeatherDisplay:10.37,2013-05-14 22:44:00,
2013-05-15 00:49:00,49.5,44.9,29.81,ESE,107,2.3,2.3,84,0.00,CLR,,0.00,0.0,WeatherDisplay:10.37,2013-05-14 22:49:00,
2013-05-15 00:54:00,49.4,44.8,29.81,ESE,107,4.0,4.0,84,0.00,CLR,,0.00,0.0,WeatherDisplay:10.37,2013-05-14 22:54:00,
2013-05-15 00:59:00,49.3,44.7,29.81,ESE,107,4.0,4.0,84,0.00,CLR,,0.00,0.0,WeatherDisplay:10.37,2013-05-14 22:59:00,
2013-05-15 01:04:00,49.1,44.5,29.81,ESE,107,1.2,1.2,84,0.00,CLR,,0.00,0.0,WeatherDisplay:10.37,2013-05-14 23:04:00,
2013-05-15 01:14:00,48.9,44.3,29.81,ESE,107,3.5,3.5,84,0.00,CLR,,0.00,0.0,WeatherDisplay:10.37,2013-05-14 23:14:00,
2013-05-15 01:19:00,48.8,44.2,29.81,ESE,107,3.5,3.5,84,0.00,CLR,,0.00,0.0,WeatherDisplay:10.37,2013-05-14 23:19:00,
2013-05-15 01:24:00,48.7,44.1,29.81,ESE,107,4.6,4.6,84,0.00,CLR,,0.00,0.0,WeatherDisplay:10.37,2013-05-14 23:24:00,
2013-05-15 01:29:00,48.6,44.0,29.81,ESE,105,3.5,3.5,84,0.00,CLR,,0.00,0.0,WeatherDisplay:10.37,2013-05-14 23:29:00,
2013-05-15 01:34:00,48.6,44.0,29.80,ESE,105,2.3,2.3,84,0.00,CLR,,0.00,0.0,WeatherDisplay:10.37,2013-05-14 23:34:00,
2013-05-15 01:39:00,48.5,43.9,29.80,ESE,105,3.5,3.5,84,0.00,CLR,,0.00,0.0,WeatherDisplay:10.37,2013-05-14 23:39:00,
2013-05-15 01:44:00,48.4,43.8,29.80,ESE,105,4.0,4.0,84,0.00,CLR,,0.00,0.0,WeatherDisplay:10.37,2013-05-14 23:44:00,
2013-05-15 01:49:00,48.3,44.0,29.80,ESE,105,4.0,4.0,85,0.00,CLR,,0.00,0.0,WeatherDisplay:10.37,2013-05-14 23:49:00,
2013-05-15 01:54:00,48.2,43.9,29.80,ESE,106,4.0,4.0,85,0.00,CLR,,0.00,0.0,WeatherDisplay:10.37,2013-05-14 23:54:00,
2013-05-15 01:59:00,48.2,43.9,29.80,ESE,108,4.0,4.0,85,0.00,CLR,,0.00,0.0,WeatherDisplay:10.37,2013-05-14 23:59:00,
2013-05-15 02:04:00,48.1,43.5,29.80,ESE,109,4.6,4.6,84,0.00,CLR,,0.00,0.0,WeatherDisplay:10.37,2013-05-15 00:04:00,
2013-05-15 02:09:00,48.0,43.7,29.80,ESE,111,4.6,4.6,85,0.00,CLR,,0.00,0.0,WeatherDisplay:10.37,2013-05-15 00:09:00,
2013-05-15 02:14:00,47.9,43.6,29.80,ESE,111,4.0,4.0,85,0.00,CLR,,0.00,0.0,WeatherDisplay:10.37,2013-05-15 00:14:00,
2013-05-15 02:19:00,47.8,43.5,29.80,ESE,111,2.3,2.3,85,0.00,CLR,,0.00,0.0,WeatherDisplay:10.37,2013-05-15 00:19:00,
2013-05-15 02:24:00,47.7,43.4,29.80,ESE,111,3.5,3.5,85,0.00,CLR,,0.00,0.0,WeatherDisplay:10.37,2013-05-15 00:24:00,
2013-05-15 02:29:00,47.6,43.3,29.80,ESE,112,3.5,3.5,85,0.00,CLR,,0.00,0.0,WeatherDisplay:10.37,2013-05-15 00:29:00,
2013-05-15 02:34:00,47.5,43.2,29.80,ESE,111,2.3,2.3,85,0.00,CLR,,0.00,0.0,WeatherDisplay:10.37,2013-05-15 00:34:00,
2013-05-15 02:39:00,47.4,43.1,29.79,ESE,111,4.6,4.6,85,0.00,CLR,,0.00,0.0,WeatherDisplay:10.37,2013-05-15 00:39:00,
2013-05-15 02:44:00,47.3,43.0,29.79,ESE,112,4.6,4.6,85,0.00,CLR,,0.00,0.0,WeatherDisplay:10.37,2013-05-15 00:44:00,
2013-05-15 02:49:00,47.3,43.0,29.79,East,95,4.0,4.0,85,0.00,CLR,,0.00,0.0,WeatherDisplay:10.37,2013-05-15 00:49:00,
2013-05-15 02:54:00,47.3,42.7,29.79,East,92,4.6,4.6,84,0.00,CLR,,0.00,0.0,WeatherDisplay:10.37,2013-05-15 00:54:00,
2013-05-15 02:59:00,47.3,42.7,29.79,East,100,6.0,6.0,84,0.00,CLR,,0.00,0.0,WeatherDisplay:10.37,2013-05-15 00:59:00,
2013-05-15 03:04:00,47.3,42.7,29.79,East,94,3.5,3.5,84,0.00,CLR,,0.00,0.0,WeatherDisplay:10.37,2013-05-15 01:04:00,
2013-05-15 03:09:00,47.3,42.7,29.79,East,94,5.0,5.0,84,0.00,CLR,,0.00,0.0,WeatherDisplay:10.37,2013-05-15 01:09:00,
2013-05-15 03:14:00,47.3,43.0,29.79,East,92,5.8,5.8,85,0.00,CLR,,0.00,0.0,WeatherDisplay:10.37,2013-05-15 01:14:00,
2013-05-15 03:19:00,47.3,43.0,29.79,ESE,109,6.9,6.9,85,0.00,CLR,,0.00,0.0,WeatherDisplay:10.37,2013-05-15 01:19:00,
2013-05-15 03:24:00,47.3,43.0,29.79,East,94,4.0,4.0,85,0.00,CLR,,0.00,0.0,WeatherDisplay:10.37,2013-05-15 01:24:00,
2013-05-15 03:29:00,47.3,42.7,29.78,ESE,103,6.9,6.9,84,0.00,CLR,,0.00,0.0,WeatherDisplay:10.37,2013-05-15 01:29:00,
2013-05-15 03:34:00,47.3,42.7,29.78,East,88,5.8,5.8,84,0.00,CLR,,0.00,0.0,WeatherDisplay:10.37,2013-05-15 01:34:00,
2013-05-15 03:39:00,47.2,42.6,29.78,ESE,108,5.8,5.8,84,0.00,CLR,,0.00,0.0,WeatherDisplay:10.37,2013-05-15 01:39:00,
2013-05-15 03:44:00,47.2,42.9,29.78,ESE,107,4.0,4.0,85,0.00,CLR,,0.00,0.0,WeatherDisplay:10.37,2013-05-15 01:44:00,
2013-05-15 03:49:00,47.2,42.6,29.78,ESE,103,3.5,3.5,84,0.00,CLR,,0.00,0.0,WeatherDisplay:10.37,2013-05-15 01:49:00,
2013-05-15 03:54:00,47.2,42.6,29.78,ESE,105,3.5,3.5,84,0.00,CLR,,0.00,0.0,WeatherDisplay:10.37,2013-05-15 01:54:00,
2013-05-15 03:59:00,47.1,42.5,29.78,ESE,105,3.5,3.5,84,0.00,CLR,,0.00,0.0,WeatherDisplay:10.37,2013-05-15 01:59:00,
2013-05-15 04:04:00,47.0,42.4,29.78,ESE,106,4.6,4.6,84,0.00,CLR,,0.00,0.0,WeatherDisplay:10.37,2013-05-15 02:04:00,
2013-05-15 04:09:00,46.9,42.3,29.77,ESE,108,3.5,3.5,84,0.00,CLR,,0.00,0.0,WeatherDisplay:10.37,2013-05-15 02:09:00,
2013-05-15 04:14:00,46.8,42.2,29.77,ESE,116,3.5,3.5,84,0.00,CLR,,0.00,0.0,WeatherDisplay:10.37,2013-05-15 02:14:00,
2013-05-15 04:19:00,46.8,42.2,29.77,ESE,116,2.3,2.3,84,0.00,CLR,,0.00,0.0,WeatherDisplay:10.37,2013-05-15 02:19:00,
2013-05-15 04:24:00,46.7,42.1,29.77,ESE,117,3.5,3.5,84,0.00,CLR,,0.00,0.0,WeatherDisplay:10.37,2013-05-15 02:24:00,
2013-05-15 04:29:00,46.7,42.1,29.77,ESE,112,3.5,3.5,84,0.00,CLR,,0.00,0.0,WeatherDisplay:10.37,2013-05-15 02:29:00,
2013-05-15 04:34:00,46.6,42.0,29.77,ESE,112,4.0,4.0,84,0.00,CLR,,0.00,0.0,WeatherDisplay:10.37,2013-05-15 02:34:00,
2013-05-15 04:39:00,46.4,41.8,29.77,ESE,112,2.3,2.3,84,0.00,CLR,,0.00,0.0,WeatherDisplay:10.37,2013-05-15 02:39:00,
2013-05-15 04:44:00,46.3,41.7,29.77,ESE,112,1.2,0.0,84,0.00,CLR,,0.00,0.0,WeatherDisplay:10.37,2013-05-15 02:44:00,
2013-05-15 04:50:00,46.1,41.8,29.77,ESE,112,4.0,4.0,85,0.00,CLR,,0.00,0.0,WeatherDisplay:10.37,2013-05-15 02:50:00,
2013-05-15 04:56:00,45.5,41.3,29.77,ESE,112,3.5,3.5,85,0.00,CLR,,0.00,0.0,WeatherDisplay:10.37,2013-05-15 02:56:00,
2013-05-15 05:01:00,45.1,40.9,29.77,ESE,112,4.0,4.0,85,0.00,OVC,,0.00,0.0,WeatherDisplay:10.37,2013-05-15 03:01:00,
2013-05-15 05:06:00,44.8,40.6,29.77,ESE,112,3.5,3.5,85,0.00,OVC,,0.00,0.0,WeatherDisplay:10.37,2013-05-15 03:06:00,
2013-05-15 05:11:00,44.7,40.5,29.77,ESE,112,2.3,2.3,85,0.00,OVC,,0.00,0.0,WeatherDisplay:10.37,2013-05-15 03:11:00,
2013-05-15 05:16:00,44.6,40.4,29.77,ESE,112,1.2,0.0,85,0.00,OVC,,0.00,0.0,WeatherDisplay:10.37,2013-05-15 03:16:00,
2013-05-15 05:21:00,44.5,40.0,29.77,ESE,112,0.0,0.0,84,0.00,BKN,,0.00,5.0,WeatherDisplay:10.37,2013-05-15 03:21:00,
2013-05-15 05:26:00,44.4,39.9,29.77,ESE,112,0.0,0.0,84,0.00,OVC,,0.00,7.0,WeatherDisplay:10.37,2013-05-15 03:26:00,
2013-05-15 05:31:00,44.2,40.0,29.77,ESE,112,0.0,0.0,85,0.00,OVC,,0.00,9.0,WeatherDisplay:10.37,2013-05-15 03:31:00,
2013-05-15 05:36:00,44.1,39.9,29.77,ESE,112,0.0,0.0,85,0.00,OVC,,0.00,11.0,WeatherDisplay:10.37,2013-05-15 03:36:00,
2013-05-15 05:41:00,44.0,39.8,29.77,ESE,112,0.0,0.0,85,0.00,OVC,,0.00,14.0,WeatherDisplay:10.37,2013-05-15 03:41:00,
2013-05-15 05:46:00,43.9,39.4,29.77,ESE,112,1.2,1.2,84,0.00,OVC,,0.00,16.0,WeatherDisplay:10.37,2013-05-15 03:46:00,
2013-05-15 05:51:00,43.9,39.4,29.77,ESE,112,1.2,1.2,84,0.00,OVC,,0.00,18.0,WeatherDisplay:10.37,2013-05-15 03:51:00,
2013-05-15 05:56:00,43.9,39.4,29.77,ESE,112,2.3,2.3,84,0.00,OVC,,0.00,23.0,WeatherDisplay:10.37,2013-05-15 03:56:00,
2013-05-15 06:01:00,44.1,39.6,29.77,ESE,112,2.3,2.3,84,0.00,BKN,,0.00,37.0,WeatherDisplay:10.37,2013-05-15 04:01:00,
2013-05-15 06:02:00,44.2,39.7,29.77,ESE,112,2.3,2.3,84,0.00,OVC,,0.00,32.0,WeatherDisplay:10.37,2013-05-15 04:02:00,
2013-05-15 06:03:00,44.2,39.7,29.77,ESE,112,2.3,2.3,84,0.00,OVC,,0.00,30.0,WeatherDisplay:10.37,2013-05-15 04:03:00,
2013-05-15 06:04:00,44.3,39.8,29.77,ESE,112,1.2,1.2,84,0.00,OVC,,0.00,32.0,WeatherDisplay:10.37,2013-05-15 04:04:00,
2013-05-15 06:09:00,44.7,39.9,29.77,ESE,112,0.0,0.0,83,0.00,OVC,,0.00,39.0,WeatherDisplay:10.37,2013-05-15 04:09:00,
2013-05-15 06:12:00,44.8,40.3,29.77,ESE,112,1.2,1.2,84,0.00,OVC,,0.00,25.0,WeatherDisplay:10.37,2013-05-15 04:12:00,
2013-05-15 06:17:00,45.1,40.2,29.77,SW,215,1.2,0.0,83,0.00,OVC,,0.00,39.0,WeatherDisplay:10.37,2013-05-15 04:17:00,
2013-05-15 06:22:00,45.5,40.9,29.77,SW,215,2.3,2.3,84,0.00,SCT,,0.00,67.0,WeatherDisplay:10.37,2013-05-15 04:22:00,
2013-05-15 06:27:00,46.0,41.1,29.76,ESE,109,4.0,4.0,83,0.00,OVC,,0.00,70.0,WeatherDisplay:10.37,2013-05-15 04:27:00,
2013-05-15 06:32:00,46.7,41.8,29.76,ESE,111,3.5,3.5,83,0.00,OVC,,0.00,62.0,WeatherDisplay:10.37,2013-05-15 04:32:00,
2013-05-15 06:37:00,47.3,42.4,29.76,ESE,106,3.5,3.5,83,0.00,BKN,,0.00,81.0,WeatherDisplay:10.37,2013-05-15 04:37:00,
2013-05-15 06:42:00,48.0,43.4,29.76,East,88,3.5,3.5,84,0.00,OVC,,0.00,60.0,WeatherDisplay:10.37,2013-05-15 04:42:00,
2013-05-15 06:47:00,48.7,44.1,29.76,East,94,4.6,4.6,84,0.00,BKN,,0.00,113.0,WeatherDisplay:10.37,2013-05-15 04:47:00,
2013-05-15 06:52:00,49.2,44.6,29.77,ESE,104,5.8,5.8,84,0.00,BKN,,0.00,54.0,WeatherDisplay:10.37,2013-05-15 04:52:00,
2013-05-15 06:58:00,49.6,45.3,29.76,SE,126,7.0,7.0,85,0.00,BKN,,0.00,93.0,WeatherDisplay:10.37,2013-05-15 04:58:00,
2013-05-15 07:03:00,50.0,45.7,29.76,East,90,9.0,9.0,85,0.00,OVC,,0.00,56.0,WeatherDisplay:10.37,2013-05-15 05:03:00,
2013-05-15 07:08:00,50.3,46.0,29.77,East,82,5.0,5.0,85,0.00,OVC,,0.00,83.0,WeatherDisplay:10.37,2013-05-15 05:08:00,
2013-05-15 07:14:00,50.9,46.2,29.76,ENE,69,7.0,7.0,84,0.00,OVC,,0.00,128.0,WeatherDisplay:10.37,2013-05-15 05:14:00,
2013-05-15 07:19:00,51.3,46.6,29.76,ENE,77,6.9,6.9,84,0.00,FEW,,0.00,267.0,WeatherDisplay:10.37,2013-05-15 05:19:00,
2013-05-15 07:24:00,52.1,47.4,29.76,ENE,64,4.6,4.6,84,0.00,FEW,,0.00,288.0,WeatherDisplay:10.37,2013-05-15 05:24:00,
2013-05-15 07:29:00,52.8,47.8,29.76,East,80,8.1,8.1,83,0.00,FEW,,0.00,301.0,WeatherDisplay:10.37,2013-05-15 05:29:00,
2013-05-15 07:34:00,53.5,48.1,29.76,East,91,7.0,7.0,82,0.00,FEW,,0.00,313.0,WeatherDisplay:10.37,2013-05-15 05:34:00,
2013-05-15 07:39:00,54.1,48.7,29.76,ESE,103,5.8,5.8,82,0.00,FEW,,0.00,327.0,WeatherDisplay:10.37,2013-05-15 05:39:00,
2013-05-15 07:44:00,55.0,49.3,29.76,ESE,121,8.1,8.1,81,0.00,FEW,,0.00,341.0,WeatherDisplay:10.37,2013-05-15 05:44:00,
2013-05-15 07:49:00,55.6,49.5,29.76,ESE,123,7.0,7.0,80,0.00,FEW,,0.00,355.0,WeatherDisplay:10.37,2013-05-15 05:49:00,
2013-05-15 07:54:00,56.2,49.8,29.76,East,99,7.0,7.0,79,0.00,FEW,,0.00,369.0,WeatherDisplay:10.37,2013-05-15 05:54:00,
2013-05-15 07:59:00,56.6,49.5,29.76,East,85,11.5,11.5,77,0.00,FEW,,0.00,381.0,WeatherDisplay:10.37,2013-05-15 05:59:00,
2013-05-15 08:04:00,56.9,49.8,29.76,ESE,107,9.2,9.2,77,0.00,FEW,,0.00,396.0,WeatherDisplay:10.37,2013-05-15 06:04:00,
2013-05-15 08:09:00,57.4,50.2,29.75,East,101,8.0,8.0,77,0.00,FEW,,0.00,410.0,WeatherDisplay:10.37,2013-05-15 06:09:00,
2013-05-15 08:14:00,58.1,50.2,29.75,ENE,64,6.9,6.9,75,0.00,FEW,,0.00,424.0,WeatherDisplay:10.37,2013-05-15 06:14:00,
2013-05-15 08:19:00,58.3,50.4,29.75,ENE,61,8.1,8.1,75,0.00,FEW,,0.00,439.0,WeatherDisplay:10.37,2013-05-15 06:19:00,
2013-05-15 08:24:00,58.7,50.8,29.75,ESE,120,11.0,11.0,75,0.00,FEW,,0.00,454.0,WeatherDisplay:10.37,2013-05-15 06:24:00,
2013-05-15 08:29:00,58.9,50.3,29.75,East,91,10.0,10.0,73,0.00,FEW,,0.00,468.0,WeatherDisplay:10.37,2013-05-15 06:29:00,
2013-05-15 08:34:00,59.1,50.8,29.75,ESE,107,7.0,7.0,74,0.00,FEW,,0.00,478.0,WeatherDisplay:10.37,2013-05-15 06:34:00,
2013-05-15 08:39:00,59.8,51.1,29.74,ENE,57,6.9,6.9,73,0.00,FEW,,0.00,494.0,WeatherDisplay:10.37,2013-05-15 06:39:00,
2013-05-15 08:44:00,60.0,51.3,29.74,ENE,57,6.9,6.9,73,0.00,FEW,,0.00,506.0,WeatherDisplay:10.37,2013-05-15 06:44:00,
2013-05-15 08:49:00,60.2,51.1,29.74,East,79,11.0,11.0,72,0.00,FEW,,0.00,519.0,WeatherDisplay:10.37,2013-05-15 06:49:00,
2013-05-15 08:55:00,60.3,50.5,29.74,East,86,10.4,10.4,70,0.00,FEW,,0.00,534.0,WeatherDisplay:10.37,2013-05-15 06:55:00,
2013-05-15 09:00:00,60.2,50.8,29.74,East,84,6.0,6.0,71,0.00,FEW,,0.00,547.0,WeatherDisplay:10.37,2013-05-15 07:00:00,
2013-05-15 09:05:00,60.6,50.8,29.74,East,101,11.5,11.5,70,0.00,FEW,,0.00,559.0,WeatherDisplay:10.37,2013-05-15 07:05:00,
2013-05-15 09:10:00,60.8,51.0,29.74,ENE,75,9.2,9.2,70,0.00,FEW,,0.00,571.0,WeatherDisplay:10.37,2013-05-15 07:10:00,
2013-05-15 09:15:00,60.9,51.0,29.74,ENE,63,11.5,11.5,70,0.00,FEW,,0.00,582.0,WeatherDisplay:10.37,2013-05-15 07:15:00,
2013-05-15 09:20:00,61.3,51.8,29.74,ENE,62,8.1,8.1,71,0.00,FEW,,0.00,596.0,WeatherDisplay:10.37,2013-05-15 07:20:00,
2013-05-15 09:25:00,61.7,51.4,29.73,ENE,70,11.0,11.0,69,0.00,FEW,,0.00,608.0,WeatherDisplay:10.37,2013-05-15 07:25:00,
2013-05-15 09:30:00,61.9,51.2,29.73,East,92,11.0,11.0,68,0.00,FEW,,0.00,617.0,WeatherDisplay:10.37,2013-05-15 07:30:00,
2013-05-15 09:35:00,62.0,51.3,29.73,ESE,111,11.0,11.0,68,0.00,FEW,,0.00,624.0,WeatherDisplay:10.37,2013-05-15 07:35:00,
2013-05-15 09:40:00,62.2,51.5,29.73,ENE,76,12.7,12.7,68,0.00,FEW,,0.00,640.0,WeatherDisplay:10.37,2013-05-15 07:40:00,
2013-05-15 09:45:00,62.6,51.9,29.73,ESE,103,13.8,13.8,68,0.00,FEW,,0.00,652.0,WeatherDisplay:10.37,2013-05-15 07:45:00,
2013-05-15 09:50:00,63.1,52.0,29.73,ENE,72,9.2,9.2,67,0.00,FEW,,0.00,661.0,WeatherDisplay:10.37,2013-05-15 07:50:00,
2013-05-15 09:55:00,63.0,52.3,29.73,ENE,58,13.0,13.0,68,0.00,FEW,,0.00,673.0,WeatherDisplay:10.37,2013-05-15 07:55:00,
2013-05-15 10:00:00,63.4,52.7,29.73,NE,51,11.5,11.5,68,0.00,FEW,,0.00,682.0,WeatherDisplay:10.37,2013-05-15 08:00:00,
2013-05-15 10:05:00,63.9,53.1,29.72,East,86,12.7,12.7,68,0.00,FEW,,0.00,693.0,WeatherDisplay:10.37,2013-05-15 08:05:00,
2013-05-15 10:10:00,64.2,52.6,29.72,NE,50,12.0,12.0,66,0.00,FEW,,0.00,700.0,WeatherDisplay:10.37,2013-05-15 08:10:00,
2013-05-15 10:15:00,64.4,52.8,29.72,East,98,11.5,11.5,66,0.00,FEW,,0.00,714.0,WeatherDisplay:10.37,2013-05-15 08:15:00,
2013-05-15 10:20:00,65.0,52.9,29.72,ESE,108,13.8,13.8,65,0.00,FEW,,0.00,722.0,WeatherDisplay:10.37,2013-05-15 08:20:00,
2013-05-15 10:25:00,65.6,53.9,29.72,ENE,74,8.1,8.1,66,0.00,FEW,,0.00,731.0,WeatherDisplay:10.37,2013-05-15 08:25:00,
2013-05-15 10:30:00,66.3,52.9,29.72,ENE,67,18.4,18.4,62,0.00,FEW,,0.00,737.0,WeatherDisplay:10.37,2013-05-15 08:30:00,
2013-05-15 10:35:00,65.8,52.9,29.72,ESE,104,12.7,12.7,63,0.00,FEW,,0.00,747.0,WeatherDisplay:10.37,2013-05-15 08:35:00,
2013-05-15 10:40:00,66.3,52.9,29.72,East,92,15.0,15.0,62,0.00,FEW,,0.00,756.0,WeatherDisplay:10.37,2013-05-15 08:40:00,
2013-05-15 10:45:00,67.0,54.4,29.72,ENE,67,13.8,13.8,64,0.00,FEW,,0.00,763.0,WeatherDisplay:10.37,2013-05-15 08:45:00,
2013-05-15 10:50:00,67.3,53.4,29.71,East,84,14.0,14.0,61,0.00,FEW,,0.00,772.0,WeatherDisplay:10.37,2013-05-15 08:50:00,
2013-05-15 10:55:00,67.2,53.3,29.71,NE,56,11.5,11.5,61,0.00,FEW,,0.00,777.0,WeatherDisplay:10.37,2013-05-15 08:55:00,
2013-05-15 11:00:00,67.6,54.1,29.71,ESE,107,11.5,11.5,62,0.00,FEW,,0.00,788.0,WeatherDisplay:10.37,2013-05-15 09:00:00,
2013-05-15 11:05:00,68.0,54.0,29.71,ENE,63,12.7,12.7,61,0.00,FEW,,0.00,791.0,WeatherDisplay:10.37,2013-05-15 09:05:00,
2013-05-15 11:10:00,68.3,53.9,29.71,ENE,60,12.7,12.7,60,0.00,FEW,,0.00,798.0,WeatherDisplay:10.37,2013-05-15 09:10:00,
2013-05-15 11:15:00,68.5,54.1,29.70,SE,130,14.0,14.0,60,0.00,FEW,,0.00,800.0,WeatherDisplay:10.37,2013-05-15 09:15:00,
2013-05-15 11:20:00,68.8,54.3,29.70,East,90,13.0,13.0,60,0.00,FEW,,0.00,809.0,WeatherDisplay:10.37,2013-05-15 09:20:00,
2013-05-15 11:25:00,69.2,55.6,29.70,ENE,70,9.0,9.0,62,0.00,FEW,,0.00,812.0,WeatherDisplay:10.37,2013-05-15 09:25:00,
2013-05-15 11:30:00,69.4,54.0,29.70,NNE,32,17.0,17.0,58,0.00,FEW,,0.00,821.0,WeatherDisplay:10.37,2013-05-15 09:30:00,
2013-05-15 11:35:00,69.2,53.8,29.70,NE,39,13.8,13.8,58,0.00,FEW,,0.00,824.0,WeatherDisplay:10.37,2013-05-15 09:35:00,
2013-05-15 11:40:00,69.7,54.7,29.69,ENE,63,12.7,12.7,59,0.00,FEW,,0.00,833.0,WeatherDisplay:10.37,2013-05-15 09:40:00,
2013-05-15 11:47:00,69.7,53.8,29.69,East,100,15.0,15.0,57,0.00,FEW,,0.00,837.0,WeatherDisplay:10.37,2013-05-15 09:47:00,
2013-05-15 11:52:00,70.3,53.9,29.69,East,94,15.0,15.0,56,0.00,FEW,,0.00,844.0,WeatherDisplay:10.37,2013-05-15 09:52:00,
2013-05-15 11:57:00,70.4,53.0,29.69,ESE,122,19.6,19.6,54,0.00,FEW,,0.00,849.0,WeatherDisplay:10.37,2013-05-15 09:57:00,
2013-05-15 12:02:00,70.6,54.1,29.68,East,94,9.2,9.2,56,0.00,FEW,,0.00,849.0,WeatherDisplay:10.37,2013-05-15 10:02:00,
2013-05-15 12:07:00,70.7,53.7,29.68,East,100,16.0,16.0,55,0.00,FEW,,0.00,853.0,WeatherDisplay:10.37,2013-05-15 10:07:00,
2013-05-15 12:12:00,70.7,54.2,29.68,East,87,18.4,18.4,56,0.00,FEW,,0.00,854.0,WeatherDisplay:10.37,2013-05-15 10:12:00,
2013-05-15 12:17:00,70.9,53.4,29.68,ESE,103,19.6,19.6,54,0.00,FEW,,0.00,856.0,WeatherDisplay:10.37,2013-05-15 10:17:00,
2013-05-15 12:22:00,71.1,55.1,29.68,East,95,14.0,14.0,57,0.00,FEW,,0.00,860.0,WeatherDisplay:10.37,2013-05-15 10:22:00,
2013-05-15 12:27:00,71.0,54.5,29.67,ENE,70,17.3,17.3,56,0.00,FEW,,0.00,861.0,WeatherDisplay:10.37,2013-05-15 10:27:00,
2013-05-15 12:32:00,71.2,54.7,29.67,SSE,155,13.8,13.8,56,0.00,FEW,,0.00,861.0,WeatherDisplay:10.37,2013-05-15 10:32:00,
2013-05-15 12:37:00,71.5,55.0,29.67,East,82,19.6,19.6,56,0.00,FEW,,0.00,868.0,WeatherDisplay:10.37,2013-05-15 10:37:00,
2013-05-15 12:42:00,71.6,54.1,29.67,ESE,104,17.3,17.3,54,0.00,FEW,,0.00,868.0,WeatherDisplay:10.37,2013-05-15 10:42:00,
2013-05-15 12:47:00,71.4,54.4,29.67,ESE,103,15.0,15.0,55,0.00,FEW,,0.00,867.0,WeatherDisplay:10.37,2013-05-15 10:47:00,
2013-05-15 12:52:00,71.5,54.5,29.66,East,92,12.7,12.7,55,0.00,FEW,,0.00,863.0,WeatherDisplay:10.37,2013-05-15 10:52:00,
2013-05-15 12:57:00,71.8,55.3,29.66,NE,51,18.0,18.0,56,0.00,FEW,,0.00,867.0,WeatherDisplay:10.37,2013-05-15 10:57:00,
2013-05-15 13:02:00,71.7,55.2,29.66,SE,128,14.0,14.0,56,0.00,FEW,,0.00,863.0,WeatherDisplay:10.37,2013-05-15 11:02:00,
2013-05-15 13:07:00,71.8,54.8,29.67,East,98,17.3,17.3,55,0.00,FEW,,0.00,863.0,WeatherDisplay:10.37,2013-05-15 11:07:00,
2013-05-15 13:12:00,72.2,55.1,29.66,ENE,66,15.0,15.0,55,0.00,FEW,,0.00,860.0,WeatherDisplay:10.37,2013-05-15 11:12:00,
2013-05-15 13:17:00,72.1,55.0,29.66,ESE,123,16.0,16.0,55,0.00,FEW,,0.00,858.0,WeatherDisplay:10.37,2013-05-15 11:17:00,
2013-05-15 13:23:00,72.0,54.4,29.66,ESE,106,19.6,19.6,54,0.00,FEW,,0.00,860.0,WeatherDisplay:10.37,2013-05-15 11:23:00,
2013-05-15 13:28:00,72.1,55.5,29.66,East,95,16.0,16.0,56,0.00,FEW,,0.00,858.0,WeatherDisplay:10.37,2013-05-15 11:28:00,
2013-05-15 13:33:00,72.2,55.1,29.66,SE,132,15.0,15.0,55,0.00,FEW,,0.00,851.0,WeatherDisplay:10.37,2013-05-15 11:33:00,
2013-05-15 13:38:00,72.2,54.6,29.65,ESE,116,19.0,19.0,54,0.00,FEW,,0.00,847.0,WeatherDisplay:10.37,2013-05-15 11:38:00,
2013-05-15 13:43:00,72.5,54.9,29.65,ESE,107,16.0,16.0,54,0.00,FEW,,0.00,842.0,WeatherDisplay:10.37,2013-05-15 11:43:00,
2013-05-15 13:49:00,72.2,55.1,29.65,East,80,19.6,19.6,55,0.00,FEW,,0.00,842.0,WeatherDisplay:10.37,2013-05-15 11:49:00,
2013-05-15 13:54:00,72.2,54.1,29.65,ENE,65,19.6,19.6,53,0.00,FEW,,0.00,830.0,WeatherDisplay:10.37,2013-05-15 11:54:00,
2013-05-15 13:59:00,72.3,55.2,29.65,ENE,59,18.4,18.4,55,0.00,FEW,,0.00,821.0,WeatherDisplay:10.37,2013-05-15 11:59:00,
2013-05-15 14:04:00,72.4,55.8,29.65,East,82,16.1,16.1,56,0.00,FEW,,0.00,814.0,WeatherDisplay:10.37,2013-05-15 12:04:00,
2013-05-15 14:09:00,72.7,54.6,29.65,East,80,23.0,23.0,53,0.00,FEW,,0.00,810.0,WeatherDisplay:10.37,2013-05-15 12:09:00,
2013-05-15 14:14:00,72.7,54.6,29.64,SE,136,13.8,13.8,53,0.00,FEW,,0.00,810.0,WeatherDisplay:10.37,2013-05-15 12:14:00,
2013-05-15 14:19:00,72.9,54.8,29.64,East,89,19.6,19.6,53,0.00,FEW,,0.00,798.0,WeatherDisplay:10.37,2013-05-15 12:19:00,
2013-05-15 14:24:00,72.9,55.3,29.64,ENE,77,19.6,19.6,54,0.00,FEW,,0.00,796.0,WeatherDisplay:10.37,2013-05-15 12:24:00,
2013-05-15 14:29:00,72.8,55.7,29.64,ENE,75,19.6,19.6,55,0.00,FEW,,0.00,788.0,WeatherDisplay:10.37,2013-05-15 12:29:00,
2013-05-15 14:34:00,72.8,55.7,29.64,ESE,102,19.6,19.6,55,0.00,FEW,,0.00,780.0,WeatherDisplay:10.37,2013-05-15 12:34:00,
2013-05-15 14:40:00,73.3,55.6,29.64,ESE,109,19.6,19.6,54,0.00,FEW,,0.00,768.0,WeatherDisplay:10.37,2013-05-15 12:40:00,
2013-05-15 14:45:00,73.6,56.9,29.64,ESE,107,13.8,13.8,56,0.00,FEW,,0.00,768.0,WeatherDisplay:10.37,2013-05-15 12:45:00,
2013-05-15 14:50:00,73.7,55.5,29.64,East,81,14.0,14.0,53,0.00,FEW,,0.00,759.0,WeatherDisplay:10.37,2013-05-15 12:50:00,
2013-05-15 14:55:00,73.6,56.4,29.64,East,94,20.7,20.7,55,0.00,FEW,,0.00,754.0,WeatherDisplay:10.37,2013-05-15 12:55:00,
2013-05-15 15:00:00,73.5,55.3,29.64,ENE,60,19.6,19.6,53,0.00,FEW,,0.00,742.0,WeatherDisplay:10.37,2013-05-15 13:00:00,
2013-05-15 15:07:00,73.2,55.6,29.64,East,80,19.6,19.6,54,0.00,FEW,,0.00,728.0,WeatherDisplay:10.37,2013-05-15 13:07:00,
2013-05-15 15:16:00,73.9,56.2,29.63,East,79,19.6,19.6,54,0.00,FEW,,0.00,719.0,WeatherDisplay:10.37,2013-05-15 13:16:00,
2013-05-15 15:21:00,73.8,56.6,29.63,ESE,113,13.8,13.8,55,0.00,FEW,,0.00,708.0,WeatherDisplay:10.37,2013-05-15 13:21:00,
2013-05-15 15:26:00,74.1,56.4,29.63,ENE,68,16.1,16.1,54,0.00,FEW,,0.00,694.0,WeatherDisplay:10.37,2013-05-15 13:26:00,
2013-05-15 15:31:00,73.6,55.4,29.63,ENE,77,18.0,18.0,53,0.00,FEW,,0.00,680.0,WeatherDisplay:10.37,2013-05-15 13:31:00,
2013-05-15 15:36:00,73.6,55.4,29.63,ESE,114,20.0,20.0,53,0.00,FEW,,0.00,677.0,WeatherDisplay:10.37,2013-05-15 13:36:00,
2013-05-15 15:41:00,73.7,55.5,29.63,East,98,16.1,16.1,53,0.00,FEW,,0.00,671.0,WeatherDisplay:10.37,2013-05-15 13:41:00,
2013-05-15 15:46:00,73.6,54.9,29.62,ENE,75,19.6,19.6,52,0.00,FEW,,0.00,654.0,WeatherDisplay:10.37,2013-05-15 13:46:00,
2013-05-15 15:51:00,73.5,54.3,29.62,ENE,69,21.9,21.9,51,0.00,FEW,,0.00,649.0,WeatherDisplay:10.37,2013-05-15 13:51:00,
2013-05-15 15:57:00,73.5,55.3,29.62,East,86,18.4,18.4,53,0.00,FEW,,0.00,633.0,WeatherDisplay:10.37,2013-05-15 13:57:00,
2013-05-15 16:02:00,73.6,54.9,29.62,East,84,15.0,15.0,52,0.00,FEW,,0.00,629.0,WeatherDisplay:10.37,2013-05-15 14:02:00,
2013-05-15 16:07:00,73.2,54.5,29.62,East,82,18.4,18.4,52,0.00,FEW,,0.00,624.0,WeatherDisplay:10.37,2013-05-15 14:07:00,
2013-05-15 16:12:00,73.1,54.4,29.62,SE,126,17.0,17.0,52,0.00,FEW,,0.00,592.0,WeatherDisplay:10.37,2013-05-15 14:12:00,
2013-05-15 16:17:00,73.1,54.9,29.61,ENE,59,16.1,16.1,53,0.00,FEW,,0.00,571.0,WeatherDisplay:10.37,2013-05-15 14:17:00,
2013-05-15 16:22:00,73.1,54.9,29.61,SE,128,21.9,21.9,53,0.00,FEW,,0.00,577.0,WeatherDisplay:10.37,2013-05-15 14:22:00,
2013-05-15 16:27:00,73.3,55.1,29.61,East,91,16.0,16.0,53,0.00,FEW,,0.00,568.0,WeatherDisplay:10.37,2013-05-15 14:27:00,
2013-05-15 16:32:00,73.2,55.0,29.61,East,90,20.0,20.0,53,0.00,FEW,,0.00,555.0,WeatherDisplay:10.37,2013-05-15 14:32:00,
2013-05-15 16:37:00,73.1,54.9,29.61,ESE,109,21.0,21.0,53,0.00,FEW,,0.00,534.0,WeatherDisplay:10.37,2013-05-15 14:37:00,
2013-05-15 16:42:00,72.9,54.8,29.61,East,86,19.6,19.6,53,0.00,FEW,,0.00,531.0,WeatherDisplay:10.37,2013-05-15 14:42:00,
2013-05-15 16:47:00,73.4,56.2,29.61,ESE,115,15.0,15.0,55,0.00,FEW,,0.00,517.0,WeatherDisplay:10.37,2013-05-15 14:47:00,
2013-05-15 16:54:00,73.1,54.4,29.61,ESE,109,18.4,18.4,52,0.00,FEW,,0.00,485.0,WeatherDisplay:10.37,2013-05-15 14:54:00,
2013-05-15 16:59:00,73.2,55.6,29.61,ESE,111,19.0,19.0,54,0.00,FEW,,0.00,489.0,WeatherDisplay:10.37,2013-05-15 14:59:00,
2013-05-15 17:04:00,73.1,54.4,29.61,ENE,78,16.1,16.1,52,0.00,FEW,,0.00,436.0,WeatherDisplay:10.37,2013-05-15 15:04:00,
2013-05-15 17:09:00,72.5,53.9,29.61,East,99,18.4,18.4,52,0.00,FEW,,0.00,461.0,WeatherDisplay:10.37,2013-05-15 15:09:00,
2013-05-15 17:14:00,72.6,54.5,29.61,ENE,75,17.3,17.3,53,0.00,FEW,,0.00,446.0,WeatherDisplay:10.37,2013-05-15 15:14:00,
2013-05-15 17:21:00,72.6,53.4,29.61,ENE,57,18.4,18.4,51,0.00,FEW,,0.00,424.0,WeatherDisplay:10.37,2013-05-15 15:21:00,
2013-05-15 17:27:00,72.5,54.4,29.61,East,97,15.0,15.0,53,0.00,FEW,,0.00,411.0,WeatherDisplay:10.37,2013-05-15 15:27:00,
2013-05-15 17:32:00,72.6,54.0,29.61,ENE,77,17.3,17.3,52,0.00,FEW,,0.00,403.0,WeatherDisplay:10.37,2013-05-15 15:32:00,
2013-05-15 17:38:00,72.5,53.9,29.61,ENE,78,19.6,19.6,52,0.00,FEW,,0.00,387.0,WeatherDisplay:10.37,2013-05-15 15:38:00,
2013-05-15 17:44:00,72.5,54.4,29.61,ESE,115,18.4,18.4,53,0.00,SCT,,0.00,359.0,WeatherDisplay:10.37,2013-05-15 15:44:00,
2013-05-15 17:50:00,72.3,54.2,29.61,ESE,103,18.4,18.4,53,0.00,SCT,,0.00,346.0,WeatherDisplay:10.37,2013-05-15 15:50:00,
2013-05-15 17:55:00,72.3,55.2,29.61,ESE,123,16.1,16.1,55,0.00,SCT,,0.00,323.0,WeatherDisplay:10.37,2013-05-15 15:55:00,
2013-05-15 18:00:00,72.4,55.3,29.61,SE,127,18.4,18.4,55,0.00,FEW,,0.00,322.0,WeatherDisplay:10.37,2013-05-15 16:00:00,
2013-05-15 18:05:00,72.4,54.8,29.61,ENE,76,13.8,13.8,54,0.00,SCT,,0.00,306.0,WeatherDisplay:10.37,2013-05-15 16:05:00,
2013-05-15 18:10:00,72.2,54.1,29.61,East,94,15.0,15.0,53,0.00,SCT,,0.00,295.0,WeatherDisplay:10.37,2013-05-15 16:10:00,
2013-05-15 18:18:00,71.9,54.9,29.60,East,86,19.6,19.6,55,0.00,SCT,,0.00,218.0,WeatherDisplay:10.37,2013-05-15 16:18:00,
2013-05-15 18:23:00,71.5,54.5,29.60,East,98,11.5,11.5,55,0.00,SCT,,0.00,211.0,WeatherDisplay:10.37,2013-05-15 16:23:00,
2013-05-15 18:28:00,71.3,54.8,29.60,ENE,65,12.7,12.7,56,0.00,SCT,,0.00,202.0,WeatherDisplay:10.37,2013-05-15 16:28:00,
2013-05-15 18:33:00,71.1,54.6,29.60,ESE,116,17.3,17.3,56,0.00,SCT,,0.00,230.0,WeatherDisplay:10.37,2013-05-15 16:33:00,
2013-05-15 18:38:00,71.1,54.6,29.60,East,94,15.0,15.0,56,0.00,SCT,,0.00,220.0,WeatherDisplay:10.37,2013-05-15 16:38:00,
2013-05-15 18:43:00,71.0,55.0,29.60,ESE,106,12.0,12.0,57,0.00,SCT,,0.00,195.0,WeatherDisplay:10.37,2013-05-15 16:43:00,
2013-05-15 18:48:00,70.7,54.2,29.60,East,87,12.0,12.0,56,0.00,SCT,,0.00,192.0,WeatherDisplay:10.37,2013-05-15 16:48:00,
2013-05-15 18:53:00,70.3,53.9,29.60,ENE,75,14.0,14.0,56,0.00,BKN,,0.00,91.0,WeatherDisplay:10.37,2013-05-15 16:53:00,
2013-05-15 18:58:00,70.0,54.1,29.60,East,89,13.0,13.0,57,0.00,OVC,,0.00,49.0,WeatherDisplay:10.37,2013-05-15 16:58:00,
2013-05-15 19:03:00,69.8,54.4,29.60,East,86,13.0,13.0,58,0.00,OVC,,0.00,47.0,WeatherDisplay:10.37,2013-05-15 17:03:00,
2013-05-15 19:08:00,69.6,54.6,29.60,ESE,107,11.5,11.5,59,0.00,OVC,,0.00,42.0,WeatherDisplay:10.37,2013-05-15 17:08:00,
2013-05-15 19:13:00,69.4,54.4,29.60,ESE,122,14.0,14.0,59,0.00,OVC,,0.00,35.0,WeatherDisplay:10.37,2013-05-15 17:13:00,
2013-05-15 19:18:00,69.1,54.2,29.60,East,80,11.5,11.5,59,0.00,OVC,,0.00,30.0,WeatherDisplay:10.37,2013-05-15 17:18:00,
2013-05-15 19:23:00,68.8,53.4,29.59,ESE,115,11.5,11.5,58,0.00,OVC,,0.00,25.0,WeatherDisplay:10.37,2013-05-15 17:23:00,
2013-05-15 19:28:00,68.4,54.0,29.59,ENE,75,14.0,14.0,60,0.00,OVC,,0.00,19.0,WeatherDisplay:10.37,2013-05-15 17:28:00,
2013-05-15 19:33:00,68.1,53.7,29.59,East,90,16.0,16.0,60,0.00,OVC,,0.00,18.0,WeatherDisplay:10.37,2013-05-15 17:33:00,
2013-05-15 19:38:00,67.8,53.4,29.59,East,82,12.0,12.0,60,0.00,OVC,,0.00,16.0,WeatherDisplay:10.37,2013-05-15 17:38:00,
2013-05-15 19:43:00,67.6,52.8,29.59,ESE,107,15.0,15.0,59,0.00,OVC,,0.00,14.0,WeatherDisplay:10.37,2013-05-15 17:43:00,
2013-05-15 19:48:00,67.5,53.1,29.59,East,101,11.5,11.5,60,0.00,OVC,,0.00,12.0,WeatherDisplay:10.37,2013-05-15 17:48:00,
2013-05-15 19:53:00,67.1,53.6,29.59,ESE,104,8.1,8.1,62,0.00,OVC,,0.00,12.0,WeatherDisplay:10.37,2013-05-15 17:53:00,
2013-05-15 19:58:00,66.6,53.2,29.59,ESE,120,7.0,7.0,62,0.00,OVC,,0.00,11.0,WeatherDisplay:10.37,2013-05-15 17:58:00,
2013-05-15 20:03:00,66.3,53.3,29.59,East,88,11.5,11.5,63,0.00,OVC,,0.00,11.0,WeatherDisplay:10.37,2013-05-15 18:03:00,
2013-05-15 20:08:00,66.2,53.2,29.59,ESE,109,9.2,9.2,63,0.00,OVC,,0.00,9.0,WeatherDisplay:10.37,2013-05-15 18:08:00,
2013-05-15 20:13:00,66.1,53.6,29.59,ESE,117,11.5,11.5,64,0.00,OVC,,0.00,9.0,WeatherDisplay:10.37,2013-05-15 18:13:00,
2013-05-15 20:18:00,65.9,52.9,29.59,East,97,8.1,8.1,63,0.00,OVC,,0.00,7.0,WeatherDisplay:10.37,2013-05-15 18:18:00,
2013-05-15 20:23:00,65.7,53.2,29.60,East,88,12.7,12.7,64,0.00,OVC,,0.00,7.0,WeatherDisplay:10.37,2013-05-15 18:23:00,
2013-05-15 20:28:00,65.5,53.0,29.59,ENE,77,8.0,8.0,64,0.00,OVC,,0.00,5.0,WeatherDisplay:10.37,2013-05-15 18:28:00,
2013-05-15 20:33:00,65.2,53.1,29.60,East,96,11.5,11.5,65,0.00,OVC,,0.00,0.0,WeatherDisplay:10.37,2013-05-15 18:33:00,
2013-05-15 20:38:00,64.9,52.8,29.60,East,88,11.5,11.5,65,0.00,OVC,,0.00,0.0,WeatherDisplay:10.37,2013-05-15 18:38:00,
2013-05-15 20:43:00,64.8,53.2,29.60,ESE,106,9.0,9.0,66,0.00,OVC,,0.00,0.0,WeatherDisplay:10.37,2013-05-15 18:43:00,
2013-05-15 20:48:00,64.6,53.0,29.60,East,87,8.1,8.1,66,0.00,OVC,,0.00,0.0,WeatherDisplay:10.37,2013-05-15 18:48:00,
2013-05-15 20:53:00,64.4,52.8,29.60,ESE,102,11.0,11.0,66,0.00,OVC,,0.00,0.0,WeatherDisplay:10.37,2013-05-15 18:53:00,
2013-05-15 20:58:00,64.2,53.0,29.60,ESE,102,8.1,8.1,67,0.00,OVC,,0.00,0.0,WeatherDisplay:10.37,2013-05-15 18:58:00,
2013-05-15 21:03:00,64.0,52.8,29.61,ESE,103,7.0,7.0,67,0.00,CLR,,0.00,0.0,WeatherDisplay:10.37,2013-05-15 19:03:00,
2013-05-15 21:09:00,63.9,52.7,29.61,ENE,74,11.5,11.5,67,0.00,CLR,,0.00,0.0,WeatherDisplay:10.37,2013-05-15 19:09:00,
2013-05-15 21:14:00,63.8,52.6,29.61,ENE,74,8.1,8.1,67,0.00,CLR,,0.00,0.0,WeatherDisplay:10.37,2013-05-15 19:14:00,
2013-05-15 21:19:00,63.6,52.4,29.61,East,80,10.4,10.4,67,0.00,CLR,,0.00,0.0,WeatherDisplay:10.37,2013-05-15 19:19:00,
2013-05-15 21:24:00,63.4,52.7,29.61,East,99,8.1,8.1,68,0.00,CLR,,0.00,0.0,WeatherDisplay:10.37,2013-05-15 19:24:00,
2013-05-15 21:31:00,63.2,52.5,29.61,East,98,10.4,10.4,68,0.00,CLR,,0.00,0.0,WeatherDisplay:10.37,2013-05-15 19:31:00,
2013-05-15 21:36:00,63.1,52.8,29.61,East,88,8.1,8.1,69,0.00,CLR,,0.00,0.0,WeatherDisplay:10.37,2013-05-15 19:36:00,
2013-05-15 21:41:00,63.0,52.7,29.62,ENE,70,9.2,9.2,69,0.00,CLR,,0.00,0.0,WeatherDisplay:10.37,2013-05-15 19:41:00,
2013-05-15 21:48:00,62.7,52.4,29.62,East,90,8.1,8.1,69,0.00,CLR,,0.00,0.0,WeatherDisplay:10.37,2013-05-15 19:48:00,
2013-05-15 21:54:00,62.6,52.3,29.62,ESE,113,8.1,8.1,69,0.00,CLR,,0.00,0.0,WeatherDisplay:10.37,2013-05-15 19:54:00,
2013-05-15 22:00:00,62.5,52.6,29.62,East,79,6.9,6.9,70,0.00,CLR,,0.00,0.0,WeatherDisplay:10.37,2013-05-15 20:00:00,
2013-05-15 22:05:00,62.4,52.5,29.62,East,87,7.0,7.0,70,0.00,CLR,,0.00,0.0,WeatherDisplay:10.37,2013-05-15 20:05:00,
2013-05-15 22:10:00,62.2,52.3,29.62,East,81,5.8,5.8,70,0.00,CLR,,0.00,0.0,WeatherDisplay:10.37,2013-05-15 20:10:00,
2013-05-15 22:16:00,61.9,52.4,29.62,ENE,71,8.1,8.1,71,0.00,CLR,,0.00,0.0,WeatherDisplay:10.37,2013-05-15 20:16:00,
2013-05-15 22:21:00,61.7,52.2,29.62,East,85,5.8,5.8,71,0.00,CLR,,0.00,0.0,WeatherDisplay:10.37,2013-05-15 20:21:00,
2013-05-15 22:27:00,61.5,52.0,29.62,East,80,5.0,5.0,71,0.00,CLR,,0.00,0.0,WeatherDisplay:10.37,2013-05-15 20:27:00,
2013-05-15 22:32:00,61.4,52.3,29.62,ENE,78,4.6,4.6,72,0.00,CLR,,0.00,0.0,WeatherDisplay:10.37,2013-05-15 20:32:00,
2013-05-15 22:37:00,61.2,52.1,29.62,ENE,77,4.0,4.0,72,0.00,CLR,,0.00,0.0,WeatherDisplay:10.37,2013-05-15 20:37:00,
2013-05-15 22:42:00,60.9,52.2,29.62,ENE,74,3.5,3.5,73,0.00,CLR,,0.00,0.0,WeatherDisplay:10.37,2013-05-15 20:42:00,
2013-05-15 22:48:00,60.4,52.1,29.62,ENE,66,4.0,4.0,74,0.00,CLR,,0.00,0.0,WeatherDisplay:10.37,2013-05-15 20:48:00,
2013-05-15 22:53:00,60.1,51.8,29.62,ENE,68,4.6,4.6,74,0.00,CLR,,0.00,0.0,WeatherDisplay:10.37,2013-05-15 20:53:00,
2013-05-15 22:58:00,59.9,52.0,29.62,ENE,65,4.0,4.0,75,0.00,CLR,,0.00,0.0,WeatherDisplay:10.37,2013-05-15 20:58:00,
2013-05-15 23:03:00,59.7,51.8,29.62,ENE,65,3.5,3.5,75,0.00,CLR,,0.00,0.0,WeatherDisplay:10.37,2013-05-15 21:03:00,
2013-05-15 23:08:00,59.4,51.5,29.62,ENE,65,4.0,4.0,75,0.00,CLR,,0.00,0.0,WeatherDisplay:10.37,2013-05-15 21:08:00,
2013-05-15 23:13:00,59.1,51.5,29.61,East,80,5.0,5.0,76,0.00,CLR,,0.00,0.0,WeatherDisplay:10.37,2013-05-15 21:13:00,
2013-05-15 23:18:00,58.8,51.6,29.61,ENE,69,4.6,4.6,77,0.00,CLR,,0.00,0.0,WeatherDisplay:10.37,2013-05-15 21:18:00,
2013-05-15 23:23:00,58.8,51.6,29.61,ENE,76,6.0,6.0,77,0.00,CLR,,0.00,0.0,WeatherDisplay:10.37,2013-05-15 21:23:00,
2013-05-15 23:28:00,58.8,51.6,29.61,East,91,7.0,7.0,77,0.00,CLR,,0.00,0.0,WeatherDisplay:10.37,2013-05-15 21:28:00,
2013-05-15 23:33:00,58.8,51.6,29.61,ENE,73,7.0,7.0,77,0.00,CLR,,0.00,0.0,WeatherDisplay:10.37,2013-05-15 21:33:00,
2013-05-15 23:41:00,58.7,51.5,29.61,East,84,7.0,7.0,77,0.00,CLR,,0.00,0.0,WeatherDisplay:10.37,2013-05-15 21:41:00,
2013-05-15 23:46:00,58.6,51.4,29.61,ENE,65,5.8,5.8,77,0.00,CLR,,0.00,0.0,WeatherDisplay:10.37,2013-05-15 21:46:00,
2013-05-15 23:51:00,58.5,51.3,29.61,ENE,77,6.0,6.0,77,0.00,CLR,,0.00,0.0,WeatherDisplay:10.37,2013-05-15 21:51:00,
2013-05-15 23:56:00,58.3,51.1,29.60,ENE,61,3.5,3.5,77,0.00,CLR,,0.00,0.0,WeatherDisplay:10.37,2013-05-15 21:56:00,